FW6665 Weather Reports


time (UTC)temp
C
wind
direction
speed
KPH
gust
KPH
rain 1hr
cm
rain 24hr
cm
rain mn
cm
humidity
%
barometer
mb
20260502211704 15 97 0.0 3.2 0.00 0.03 0.03 82 1008.3
20260502211204 15 97 1.6 4.8 0.00 0.03 0.03 82 1008.6
20260502210705 15 97 0.0 4.8 0.00 0.03 0.03 82 1008.9
20260502210205 15 97 0.0 6.4 0.00 0.03 0.03 82 1008.9
20260502205738 15 97 1.6 8.0 0.00 0.03 0.03 82 1009.1
20260502205204 15 97 1.6 11.3 0.00 0.03 0.03 82 1009.1
20260502204703 15 103 3.2 11.3 0.00 0.03 0.03 81 1009.1
20260502204205 15 106 3.2 11.3 0.00 0.03 0.03 81 1009.2
20260502203704 15 92 3.2 8.0 0.00 0.03 0.03 81 1009.3
20260502203204 15 113 1.6 3.2 0.00 0.03 0.03 81 1009.4
20260502202705 15 100 1.6 8.0 0.00 0.03 0.03 81 1009.1
20260502201704 15 99 0.0 8.0 0.00 0.03 0.03 80 1008.9
20260502201209 15 103 1.6 8.0 0.00 0.03 0.03 80 1009.1
20260502200705 15 103 1.6 8.0 0.00 0.03 0.03 80 1009.3
20260502200204 15 109 3.2 8.0 0.00 0.03 0.03 80 1009.3
20260502195705 15 103 1.6 8.0 0.00 0.03 0.03 80 1009.1
20260502195206 15 94 3.2 8.0 0.00 0.03 0.03 80 1009.1
20260502194704 15 96 3.2 8.0 0.00 0.03 0.03 80 1009.2
20260502194205 15 86 1.6 6.4 0.00 0.03 0.03 80 1009.1
20260502193704 15 114 1.6 8.0 0.00 0.03 0.03 80 1009.2
20260502193205 15 116 1.6 8.0 0.00 0.03 0.03 80 1009.1
20260502192204 16 109 0.0 3.2 0.00 0.03 0.03 80 1009.1
20260502191204 16 109 0.0 6.4 0.00 0.03 0.03 79 1009.0
20260502190705 16 110 0.0 6.4 0.00 0.03 0.03 79 1009.1
20260502190205 16 110 0.0 6.4 0.00 0.03 0.03 79 1009.1
20260502185705 16 111 3.2 1.6 0.00 0.03 0.03 79 1009.3
20260502185204 16 104 0.0 1.6 0.00 0.03 0.03 79 1009.2
20260502184704 16 106 0.0 1.6 0.00 0.03 0.03 79 1009.2
20260502183704 16 106 0.0 3.2 0.00 0.03 0.03 79 1009.0
20260502183204 16 106 0.0 3.2 0.00 0.03 0.03 79 1009.1
20260502182704 16 106 0.0 4.8 0.03 0.03 0.03 78 1009.2
20260502182204 16 106 0.0 4.8 0.03 0.03 0.03 78 1009.3
20260502181706 16 104 0.0 8.0 0.03 0.03 0.03 78 1009.4
20260502181204 16 107 1.6 8.0 0.03 0.03 0.03 78 1009.6
20260502180704 16 111 0.0 8.0 0.03 0.03 0.03 79 1009.7
20260502180204 16 140 0.0 4.8 0.03 0.03 0.03 79 1009.6
20260502170204 18 212 1.6 8.0 0.00 0.00 0.00 70 1009.9
20260502163704 20 171 3.2 14.5 0.00 0.00 0.00 59 1010.1
20260502163204 20 104 3.2 14.5 0.00 0.00 0.00 56 1010.0
20260502162704 21 125 3.2 14.5 0.00 0.00 0.00 53 1010.0
20260502162204 21 93 3.2 14.5 0.00 0.00 0.00 51 1010.0
20260502161704 21 104 4.8 8.0 0.00 0.00 0.00 51 1010.0
20260502161204 21 97 3.2 8.0 0.00 0.00 0.00 51 1010.0
20260502160704 21 116 4.8 9.7 0.00 0.00 0.00 49 1010.0
20260502160205 21 83 4.8 9.7 0.00 0.00 0.00 49 1010.0
20260502151204 22 76 3.2 16.1 0.00 0.00 0.00 46 1010.6
20260502150703 22 104 4.8 16.1 0.00 0.00 0.00 46 1010.8
20260502130205 22 116 1.6 6.4 0.00 0.00 0.00 45 1012.5
20260502123205 22 124 3.2 8.0 0.00 0.00 0.00 46 1012.9
20260502122708 22 209 3.2 8.0 0.00 0.00 0.00 46 1013.0
20260502122205 22 190 1.6 8.0 0.00 0.00 0.00 46 1013.0
20260502121704 21 97 1.6 8.0 0.00 0.00 0.00 49 1013.0
20260502121205 21 111 1.6 8.0 0.00 0.00 0.00 49 1013.1
20260502120704 21 110 1.6 8.0 0.00 0.00 0.00 48 1013.2
20260502120204 21 248 1.6 8.0 0.00 0.00 0.00 48 1013.2
20260502115704 21 230 3.2 8.0 0.00 0.00 0.00 46 1013.3
20260502115204 21 93 1.6 8.0 0.00 0.00 0.00 46 1013.4
20260502114706 21 157 3.2 6.4 0.00 0.00 0.00 46 1013.6
20260502114206 21 104 1.6 6.4 0.00 0.00 0.00 48 1013.6
20260502113710 21 106 3.2 6.4 0.00 0.00 0.00 48 1013.7
20260502113204 20 252 1.6 4.8 0.00 0.00 0.00 50 1013.7
20260502112705 20 258 1.6 8.0 0.00 0.00 0.00 49 1013.7
20260502112204 20 258 1.6 8.0 0.00 0.00 0.00 47 1013.7
20260502111705 20 258 0.0 6.4 0.00 0.00 0.00 48 1013.8
20260502111204 20 254 1.6 8.0 0.00 0.00 0.00 52 1013.8
20260502110205 20 104 0.0 8.0 0.00 0.00 0.00 55 1014.3
20260502105704 19 104 3.2 4.8 0.00 0.00 0.00 54 1014.2
20260502105214 19 240 1.6 6.4 0.00 0.00 0.00 57 1014.2
20260502104705 19 269 0.0 6.4 0.00 0.00 0.00 55 1014.4
20260502104204 19 271 3.2 8.0 0.00 0.00 0.00 55 1014.3
20260502103705 19 158 1.6 8.0 0.00 0.00 0.00 56 1014.4
20260502103205 18 240 1.6 8.0 0.00 0.00 0.00 58 1014.4
20260502102704 18 255 3.2 6.4 0.00 0.00 0.00 57 1014.5
20260502101205 19 145 1.6 4.8 0.00 0.00 0.00 58 1014.6
20260502100705 19 154 1.6 6.4 0.00 0.00 0.00 57 1014.7
20260502100205 19 141 0.0 6.4 0.00 0.00 0.00 60 1014.7
20260502090704 16 233 0.0 8.0 0.00 0.00 0.00 70 1015.1
20260502070704 11 219 1.6 6.4 0.00 0.00 0.00 82 1015.8
20260502070205 11 214 3.2 6.4 0.00 0.00 0.00 82 1015.7
20260502065705 11 214 0.0 6.4 0.00 0.00 0.00 82 1015.7
20260502065205 11 212 3.2 6.4 0.00 0.00 0.00 81 1015.7
20260502064704 11 224 3.2 9.7 0.00 0.00 0.00 81 1015.7
20260502063704 11 214 1.6 9.7 0.00 0.00 0.00 80 1015.6
20260502063235 11 240 4.8 6.4 0.00 0.00 0.00 80 1015.6
20260502062705 11 217 1.6 6.4 0.00 0.00 0.00 79 1015.6
20260502061706 11 171 1.6 4.8 0.00 0.00 0.00 79 1015.5
20260502061205 11 179 0.0 6.4 0.00 0.00 0.00 79 1015.6
20260502060704 11 179 1.6 6.4 0.00 0.00 0.00 79 1015.7
20260502060204 11 179 1.6 6.4 0.00 0.00 0.00 78 1015.6
20260502055704 11 179 1.6 3.2 0.00 0.00 0.00 78 1015.6
20260502055204 11 178 0.0 3.2 0.00 0.00 0.00 78 1015.6
20260502054705 10 178 0.0 3.2 0.00 0.00 0.00 78 1015.5
20260502053705 10 178 0.0 4.8 0.00 0.00 0.00 78 1015.6
20260502052705 10 178 0.0 4.8 0.00 0.00 0.00 78 1015.7
20260502052205 10 178 1.6 3.2 0.00 0.00 0.00 79 1015.7
20260502050706 10 178 0.0 3.2 0.00 0.00 0.00 79 1015.6
20260502050204 10 178 0.0 3.2 0.00 0.00 0.00 79 1015.7
20260502045704 10 178 0.0 4.8 0.00 0.00 0.00 79 1015.7
20260502045204 10 178 0.0 4.8 0.00 0.00 0.00 79 1015.6
20260502044704 10 178 0.0 4.8 0.00 0.00 0.00 79 1015.6
20260502044205 10 178 1.6 3.2 0.00 0.00 0.00 80 1015.7
20260502043704 10 173 0.0 3.2 0.00 0.00 0.00 80 1015.6
20260502043205 10 173 0.0 3.2 0.00 0.00 0.00 80 1015.6
20260502042705 10 173 0.0 3.2 0.00 0.00 0.00 80 1015.6
20260502042204 10 173 0.0 4.8 0.00 0.00 0.00 80 1015.5
20260502041704 10 173 0.0 4.8 0.00 0.00 0.00 80 1015.5
20260502041205 10 173 0.0 4.8 0.00 0.00 0.00 81 1015.6
20260502040704 10 175 1.6 3.2 0.00 0.00 0.00 81 1015.6
20260502040204 10 175 0.0 3.2 0.00 0.00 0.00 81 1015.6
20260502035704 10 175 0.0 3.2 0.00 0.00 0.00 81 1015.5
20260502035204 10 175 0.0 3.2 0.00 0.00 0.00 81 1015.6
20260502034704 10 175 0.0 1.6 0.00 0.00 0.00 82 1015.7
20260502034205 10 175 0.0 1.6 0.00 0.00 0.00 82 1015.7
20260502033710 11 175 0.0 4.8 0.00 0.00 0.00 82 1015.8
20260502033205 11 175 0.0 4.8 0.00 0.00 0.00 82 1015.8
20260502032705 11 175 0.0 4.8 0.00 0.00 0.00 82 1015.9
20260502032204 11 175 0.0 3.2 0.00 0.00 0.00 82 1015.9
20260502031705 11 175 0.0 3.2 0.00 0.00 0.00 82 1015.9
20260502031204 11 175 0.0 3.2 0.00 0.00 0.00 82 1015.9
20260502030703 11 175 0.0 4.8 0.00 0.00 0.00 82 1015.8
20260502030204 11 175 0.0 6.4 0.00 0.00 0.00 82 1015.9
20260502025704 11 175 0.0 6.4 0.00 0.00 0.00 83 1015.8
20260502025205 11 175 1.6 6.4 0.00 0.00 0.00 83 1015.9
20260502024704 11 175 0.0 6.4 0.00 0.00 0.00 83 1015.9
20260502024204 11 175 0.0 6.4 0.00 0.00 0.00 83 1015.9
20260502023704 11 173 0.0 3.2 0.00 0.00 0.00 83 1015.9
20260502023205 11 173 0.0 3.2 0.00 0.00 0.00 83 1015.8
20260502022704 11 173 0.0 3.2 0.00 0.00 0.00 83 1015.9
20260502022205 11 173 0.0 1.6 0.00 0.00 0.00 83 1015.8
20260502021705 11 173 0.0 1.6 0.00 0.00 0.00 83 1015.9
20260502021204 11 173 0.0 1.6 0.00 0.00 0.00 83 1015.8
20260502020704 11 173 0.0 3.2 0.00 0.00 0.00 83 1015.8
20260502015704 11 173 0.0 3.2 0.00 0.00 0.00 83 1015.9
20260502015205 11 173 0.0 3.2 0.00 0.00 0.00 82 1016.0
20260502014706 11 173 0.0 1.6 0.00 0.00 0.00 82 1016.0
20260502014204 11 173 0.0 1.6 0.00 0.00 0.00 82 1016.0
20260502013705 11 173 0.0 3.2 0.00 0.00 0.00 82 1016.1
20260502013204 12 173 0.0 3.2 0.00 0.00 0.00 82 1016.2
20260502012714 12 173 0.0 1.6 0.00 0.00 0.00 82 1016.3
20260502012204 12 173 0.0 3.2 0.00 0.00 0.00 82 1016.3
20260502011705 12 173 0.0 3.2 0.00 0.00 0.00 81 1016.4
20260502011205 12 173 0.0 3.2 0.00 0.00 0.00 81 1016.4
20260502010205 12 173 0.0 3.2 0.00 0.00 0.00 80 1016.4
20260502005707 12 173 0.0 3.2 0.00 0.00 0.00 80 1016.5
20260502005204 12 173 0.0 3.2 0.00 0.00 0.00 80 1016.7
20260502004705 12 173 1.6 3.2 0.00 0.00 0.00 79 1016.8
20260502002703 13 173 0.0 4.8 0.00 0.00 0.00 77 1016.9
20260502002206 13 173 1.6 3.2 0.00 0.00 0.00 77 1016.9
20260502001704 13 172 1.6 6.4 0.00 0.00 0.00 76 1017.0
20260502001204 13 171 0.0 6.4 0.00 0.00 0.00 76 1017.0
20260502000704 13 171 1.6 6.4 0.00 0.00 0.00 76 1017.1
20260501235705 14 171 0.0 6.4 0.00 0.00 0.00 75 1017.0
20260501235205 14 168 1.6 4.8 0.00 0.00 0.00 74 1017.0
20260501234706 14 165 1.6 4.8 0.00 0.00 0.00 75 1017.1
20260501234205 15 158 1.6 4.8 0.00 0.00 0.00 74 1017.1
20260501233705 15 162 1.6 4.8 0.00 0.00 0.00 74 1017.1
20260501233205 15 169 1.6 4.8 0.00 0.00 0.00 74 1017.2
20260501232704 15 169 1.6 1.6 0.00 0.00 0.00 75 1017.1
20260501232205 15 165 0.0 3.2 0.00 0.00 0.00 74 1017.2
20260501231705 15 165 0.0 3.2 0.00 0.00 0.00 74 1017.1
20260501231204 15 165 0.0 3.2 0.00 0.00 0.00 74 1017.0
20260501230704 15 165 1.6 3.2 0.00 0.00 0.00 74 1017.0
20260501230205 15 165 0.0 3.2 0.00 0.00 0.00 74 1017.2
20260501225703 15 164 0.0 3.2 0.00 0.00 0.00 74 1017.2
20260501225204 15 164 0.0 4.8 0.00 0.00 0.00 74 1017.2
20260501223204 16 165 1.6 6.4 0.00 0.00 0.00 73 1017.2
20260501222705 16 165 1.6 8.0 0.00 0.00 0.00 73 1017.2
20260501222205 16 162 0.0 8.0 0.00 0.00 0.00 73 1017.2
20260501221704 16 165 1.6 8.0 0.00 0.00 0.00 72 1017.2
20260501221205 16 169 1.6 8.0 0.00 0.00 0.00 72 1017.1
20260501220704 16 176 1.6 9.7 0.00 0.00 0.00 72 1017.2
20260501220211 17 173 1.6 9.7 0.00 0.00 0.00 72 1017.1
20260501215704 17 172 0.0 9.7 0.00 0.00 0.00 72 1017.1
20260501215204 17 173 1.6 6.4 0.00 0.00 0.00 72 1017.0
20260501214704 17 175 3.2 6.4 0.00 0.00 0.00 72 1017.1
20260501214205 17 178 1.6 6.4 0.00 0.00 0.00 72 1017.1
20260501213705 17 179 1.6 6.4 0.00 0.00 0.00 71 1017.1
20260501213204 17 173 0.0 6.4 0.00 0.00 0.00 71 1016.9
20260501212704 17 173 3.2 4.8 0.00 0.00 0.00 70 1016.9
20260501212204 17 171 0.0 4.8 0.00 0.00 0.00 70 1017.0